Regional Weather Roundup
Issued by NWS

Home | Current Version | Previous Version | Text Only | Print | Product List | Glossary On
Versions: 1 2 3 4 5 6 7 8 9 10 11 12 13 14 15 16 17 18 19 20 21 22 23 24 25 26 27 28 29 30 31 32 33 34 35 36 37 38 39 40 41 42 43 44 45 46 47 48 49 50
000
ASUS43 KTOP 290459
RWRKS

WEATHER ROUNDUP FOR KANSAS
NATIONAL WEATHER SERVICE GOODLAND KS
1200 AM CDT TUE JUL 29 2014

NOTE:  "FAIR" INDICATES FEW OR NO CLOUDS BELOW 12,000 FEET WITH NO
SIGNIFICANT WEATHER AND/OR OBSTRUCTIONS TO VISIBILITY.

KSZ001>006-013>018-027>032-041>047-290600-
NORTHWEST KANSAS

CITY           SKY/WX    TMP DP  RH WIND       PRES   REMARKS
GOODLAND       MOCLDY    68  58  70 S10       30.25F
HAYS           MOCLDY    72  57  60 E10       30.22R
HILL CITY      MOCLDY    72  57  59 E12       30.22R
RUSSELL        PTCLDY    67  56  67 E9        30.20R
$$

KSZ061>065-074>080-084>089-290600-
SOUTHWEST KANSAS

CITY           SKY/WX    TMP DP  RH WIND       PRES   REMARKS
DODGE CITY     MOCLDY    68  57  68 S6        30.25R
ELKHART          N/A     66  62  87 SE6         N/A
GARDEN CITY    MOCLDY    66  59  78 S5        30.25S
GREAT BEND     MOCLDY    72  63  73 S5        30.20R
LIBERAL        CLOUDY    70  55  60 S5        30.27S
$$

KSZ066>073-081>083-090>101-290600-
SOUTHEAST KANSAS

CITY           SKY/WX    TMP DP  RH WIND       PRES   REMARKS
CHANUTE        PTCLDY    70  57  63 NE6       30.17S
COFFEYVILLE    CLEAR     69  60  73 CALM      30.15R
HUTCHINSON     PTCLDY    68  58  70 E5        30.19R
MEDICINE LODGE   N/A     75  58  55 E5        30.19S
NEWTON         PTCLDY    68  52  56 E3        30.22S
PARSONS        CLEAR     67  59  75 CALM      30.17S
WICHITA INTL   PTCLDY    74  55  51 E7        30.17S
WICHITA JABRA  PTCLDY    68  57  68 E5        30.18S
WINFIELD       PTCLDY    70  58  65 CALM      30.18R
$$

KSZ007>012-019>026-033>040-048>060-102>105-290600-
NORTHEAST KANSAS

CITY           SKY/WX    TMP DP  RH WIND       PRES   REMARKS
CONCORDIA      CLOUDY    69  57  65 E7        30.20S
EMPORIA        PTCLDY    67  57  70 E5        30.18S
LAWRENCE       CLEAR     60  57  89 NW6       30.18S
MANHATTAN      CLOUDY    69  57  65 N3        30.19S
OLATHE IND     CLEAR     63  59  87 N6        30.18S
OLATHE EXE     CLEAR     68  59  73 N3        30.17S
SALINA         PTCLDY    74  55  51 E7        30.19R
TOPEKA BILLARD CLEAR     67  57  70 CALM      30.18S
TOPEKA FORBES  CLEAR     66  57  72 NE5       30.18S
$$


USA.gov is the U.S. government's official web portal to all federal, state and local government web resources and services.